Flag for Paraguay Weather past 2 weeks in Asuncion, Paraguay

Now
68 °F

Thunderstorms. Mostly cloudy.


Feels Like: 68 °F
Forecast: 64 / 71 °F
Wind: 2 mph from South

Location: Asuncion / Aeropuerto

Current Time: Jul 2, 2015 at 12:42:57 PM

Latest Report: Jul 2, 2015 at 12:00 PM


Visibility: 2 mi

Pressure: 29.89 "Hg

Humidity: 94%

Dew point: 66 °F

Location of AsuncionLocation

Historic Weather in Asuncion — Graph

°F

Asuncion temperature yesterday

Maximum temperature yesterday: 68 °F (at 12:00 PM)
Minimum temperature yesterday: 54 °F (at 5:00 AM)
Average temperature yesterday: 60 °F

Past Weeks' High & Low Weather Summary

 TemperatureHumidityPressure
High84 °F (Jun 22, 2:00 PM)100% (Jun 17, 5:00 PM)30.39 "Hg (Jun 17, 5:00 PM)
Low45 °F (Jun 19, 4:00 AM)37% (Jun 19, 2:00 PM)29.74 "Hg (Jun 29, 3:00 PM)
Average66 °F83%30.09 "Hg
* Reported Jun 17 11:00 AM — Jul 2 11:00 AM, Asuncion, Weather by CustomWeather, © 2015

Note: Actual official high and low records may vary slightly from our data, if they occured in-between our weather recording intervals... More about our weather records

Advertising

Asuncion weather history for previous 24 hours

 ConditionsComfort  
Time TempWeatherWind HumidityBarometerVisibility
11:00 AM
Thu, Jul 2
68 °FThunderstorms. Mostly cloudy.2 mph88%29.92 "HgN/A
10:00 AM68 °FMostly cloudy.2 mph83%29.95 "HgN/A
9:30 AM68 °FMostly cloudy.2 mph83%29.95 "HgN/A
9:00 AM66 °FMore clouds than sun.2 mph88%29.95 "HgN/A
8:30 AM66 °FMostly cloudy.3 mph88%29.95 "HgN/A
8:00 AM66 °FMore clouds than sun.3 mph88%29.95 "HgN/A
7:30 AM66 °FOvercast.2 mph83%29.95 "HgN/A
7:00 AM64 °FPartly sunny.3 mph88%29.92 "HgN/A
5:00 AM64 °FPassing clouds.No wind88%29.92 "HgN/A
4:00 AM64 °FPassing clouds.6 mph88%29.92 "HgN/A
3:00 AM64 °FPassing clouds.5 mph88%29.95 "HgN/A
2:00 AM63 °FPassing clouds.2 mph94%29.98 "HgN/A
1:00 AM63 °FPassing clouds.2 mph94%29.98 "HgN/A
12:00 AM63 °FPartly cloudy.3 mph88%30.01 "HgN/A
11:00 PM
Wed, Jul 1
61 °FPartly cloudy.5 mph94%30.01 "HgN/A
10:00 PM61 °FPartly cloudy.No wind94%30.04 "HgN/A
9:00 PM61 °FPartly cloudy.3 mph94%30.04 "HgN/A
8:00 PM61 °FPassing clouds.3 mph94%30.04 "HgN/A
7:00 PM63 °FPartly cloudy.6 mph94%30.01 "HgN/A
6:00 PM64 °FOvercast.3 mph88%30.01 "HgN/A
5:00 PM64 °FOvercast.2 mph88%30.04 "HgN/A
4:00 PM64 °FOvercast.2 mph88%30.01 "HgN/A
3:00 PM64 °FOvercast.3 mph88%30.01 "HgN/A
2:00 PM64 °FOvercast.6 mph83%30.04 "HgN/A
1:00 PM64 °FPartly sunny.7 mph83%30.07 "HgN/A
12:00 PM68 °FScattered clouds.5 mph78%30.07 "HgN/A
Weather by CustomWeather, © 2015

See weather overviewHow to use our weather pages